TimeMDT,TemperatureF,Dew PointF,Humidity,Sea Level PressureIn,VisibilityMPH,Wind Direction,Wind SpeedMPH,Gust SpeedMPH,PrecipitationIn,Events,Conditions,WindDirDegrees,DateUTC
12:53 AM,53.1,51.1,93,29.55,5.0,North,9.2,-,N/A,,Clear,10,2013-10-04 06:53:00
1:53 AM,52.0,50.0,93,29.55,5.0,ENE,4.6,-,N/A,,Clear,60,2013-10-04 07:53:00
2:53 AM,48.9,48.0,97,29.54,5.0,East,4.6,-,N/A,,Clear,80,2013-10-04 08:53:00
3:45 AM,46.4,44.6,93,29.67,3.0,SW,5.8,-,N/A,,Scattered Clouds,220,2013-10-04 09:45:00
3:47 AM,44.6,44.6,100,29.66,1.8,SSW,5.8,-,N/A,,Scattered Clouds,210,2013-10-04 09:47:00
3:49 AM,44.6,42.8,93,29.66,1.0,SSW,5.8,-,N/A,,Mist,200,2013-10-04 09:49:00
3:53 AM,44.1,43.0,96,29.56,0.5,SSW,4.6,-,N/A,Fog,Fog,200,2013-10-04 09:53:00
4:03 AM,44.6,44.6,100,29.67,0.2,SSW,4.6,-,N/A,Fog,Fog,210,2013-10-04 10:03:00
4:26 AM,46.4,46.4,100,29.68,1.2,WSW,3.5,-,N/A,,Overcast,250,2013-10-04 10:26:00
4:33 AM,46.4,46.4,100,29.68,1.5,SSW,3.5,-,N/A,,Overcast,200,2013-10-04 10:33:00
4:46 AM,48.2,46.4,93,29.69,3.0,Calm,Calm,-,N/A,,Overcast,0,2013-10-04 10:46:00
4:53 AM,48.0,46.9,96,29.57,4.0,NW,4.6,-,N/A,,Overcast,310,2013-10-04 10:53:00
5:09 AM,50.0,48.2,94,29.70,7.0,NW,6.9,-,N/A,,Overcast,310,2013-10-04 11:09:00
5:26 AM,51.8,50.0,94,29.70,8.0,North,8.1,-,N/A,,Overcast,10,2013-10-04 11:26:00
5:35 AM,51.8,51.8,100,29.71,8.0,NNE,4.6,-,N/A,,Overcast,20,2013-10-04 11:35:00
5:53 AM,52.0,51.1,97,29.61,9.0,Calm,Calm,-,N/A,,Overcast,0,2013-10-04 11:53:00
6:41 AM,51.8,50.0,94,29.74,10.0,WSW,5.8,-,N/A,,Overcast,250,2013-10-04 12:41:00
6:53 AM,51.1,48.9,92,29.64,9.0,West,6.9,-,N/A,,Overcast,260,2013-10-04 12:53:00
7:53 AM,52.0,50.0,93,29.71,10.0,WNW,10.4,-,N/A,,Overcast,290,2013-10-04 13:53:00
8:23 AM,53.6,48.2,82,29.81,10.0,NW,11.5,-,N/A,,Overcast,310,2013-10-04 14:23:00
8:31 AM,51.8,46.4,82,29.84,9.0,North,-9999.0,-,N/A,,Overcast,0,2013-10-04 14:31:00
8:53 AM,50.0,39.9,68,29.77,10.0,NNW,24.2,33.4,N/A,,Overcast,340,2013-10-04 14:53:00
9:26 AM,53.6,35.6,51,29.86,10.0,North,17.3,28.8,N/A,,Scattered Clouds,350,2013-10-04 15:26:00
9:53 AM,54.0,36.0,51,29.79,10.0,NNW,18.4,26.5,N/A,,Mostly Cloudy,340,2013-10-04 15:53:00
10:53 AM,59.0,36.0,42,29.83,10.0,NNW,20.7,34.5,N/A,,Clear,330,2013-10-04 16:53:00
11:53 AM,59.0,34.0,39,29.86,10.0,NNW,27.6,33.4,N/A,,Clear,340,2013-10-04 17:53:00
12:53 PM,60.1,32.0,35,29.86,10.0,NNW,27.6,33.4,N/A,,Clear,340,2013-10-04 18:53:00
1:53 PM,60.1,28.9,31,29.86,10.0,North,26.5,34.5,N/A,,Clear,350,2013-10-04 19:53:00
2:53 PM,60.1,28.0,30,29.87,10.0,North,25.3,34.5,N/A,,Clear,360,2013-10-04 20:53:00
3:53 PM,59.0,28.0,31,29.91,10.0,North,21.9,32.2,N/A,,Clear,360,2013-10-04 21:53:00
4:53 PM,57.0,28.0,33,29.93,10.0,North,23.0,31.1,N/A,,Clear,360,2013-10-04 22:53:00
5:53 PM,53.1,27.0,37,29.97,10.0,North,24.2,33.4,N/A,,Partly Cloudy,360,2013-10-04 23:53:00
6:53 PM,48.0,27.0,44,30.01,10.0,North,21.9,35.7,N/A,,Clear,360,2013-10-05 00:53:00
7:53 PM,45.0,25.0,46,30.06,10.0,North,15.0,28.8,N/A,,Mostly Cloudy,360,2013-10-05 01:53:00
8:53 PM,44.1,24.1,45,30.12,10.0,Variable,5.8,20.7,N/A,,Overcast,0,2013-10-05 02:53:00
9:53 PM,42.1,23.0,47,30.13,10.0,NNW,10.4,-,N/A,,Mostly Cloudy,330,2013-10-05 03:53:00
10:53 PM,41.0,21.9,47,30.14,10.0,North,9.2,20.7,N/A,,Partly Cloudy,350,2013-10-05 04:53:00
11:53 PM,39.0,21.9,50,30.14,10.0,NNW,9.2,-,N/A,,Clear,340,2013-10-05 05:53:00